TDRS 13 (42915 NORAD) Tracking and Keplerian Element Data

This shows tracking and keplerian element data for the satellite.

Feedback or suggestion? Click here.




ElementValue
Catalog42915
NameTDRS 13
Epoch Orbit2493
Epoch Day159.91369164
Epoch Year2024
RAAN344.4704
Inclination3.6474
Eccentricity0.0017352
Argument of Perigee113.427
Mean Anonmoly116.3382
Mean Motion1.00272062
Decay Rate-1E-06
L11 42915U 17047A 24159.91369164 -.00000100 00000+0 00000+0 0 9990
L22 42915 3.6474 344.4704 0017352 113.4270 116.3382 1.00272062 24931



Live tracking and technical data element details for TDRS 13 (NORAD 42915). TDRS 13 can be tracked NOW for your location showing map with azimuth and elevation plus other details from your city location.







IsCatalogInMostPopularTable: catalog: 42915, numindb: 698
Update: records affected: 1



GetName: 42915 TDRS 13

Hit Count: updated at: Fri, 14 Jun 2024 18:59:58 GMT